Miscellaneous Local Product
Issued by NWS Hastings, NE

Home | Current Version | Previous Version | Text Only | Print | Product List | Glossary Off
Versions: 1 2 3 4 5 6 7 8 9 10 11 12 13 14 15 16 17 18 19 20 21 22 23 24 25 26 27 28 29 30 31 32 33 34 35 36 37 38 39 40 41 42 43 44 45 46 47 48 49 50

357
AXUS43 KGID 152202
MISGRI

GID CWA HOURLY WEATHER ROUNDUP
NATIONAL WEATHER SERVICE HASTINGS NE
500 PM CDT SUN OCT 15 2017

NOTE: "FAIR" INDICATES FEW OR NO CLOUDS BELOW 12,000 FEET WITH NO
SIGNIFICANT WEATHER AND/OR OBSTRUCTIONS TO VISIBILITY.

...SOUTH CENTRAL NEBRASKA...

CITY           SKY/WX    TMP DP  RH WIND       PRES   REMARKS
GRAND ISLAND   SUNNY     63  31  30 NW14      30.33S
HASTINGS       SUNNY     63  29  27 NW12G23   30.34F
KEARNEY        SUNNY     64  29  26 W10G16    30.33F
ORD            SUNNY     62  27  26 W15       30.30S
YORK           SUNNY     63  32  31 W10       30.32S
AURORA         SUNNY     63  31  30 NW7G18    30.32S
LEXINGTON      SUNNY     65  29  25 NW16G23   30.33F
HOLDREGE       SUNNY     64  27  24 NW14G20   30.34S
HEBRON         SUNNY     63  30  28 NW8       30.34F

...NEBRASKA PANHANDLE...

CITY           SKY/WX    TMP DP  RH WIND       PRES   REMARKS
CHADRON        SUNNY     61  25  25 NW9       30.33F
ALLIANCE       SUNNY     61  23  23 NW12      30.34F
SCOTTSBLUFF    SUNNY     63  22  20 W12       30.35F
SIDNEY         SUNNY     62  21  20 NW10      30.37F

...WESTERN AND NORTH CENTRAL NEBRASKA...

CITY           SKY/WX    TMP DP  RH WIND       PRES   REMARKS
VALENTINE      SUNNY     62  29  28 W16       30.31F
AINSWORTH      SUNNY     59  30  32 W14       30.31S
ONEILL         SUNNY     60  31  33 NW15G25   30.30R
BROKEN BOW     SUNNY     64  30  27 NW13      30.31F
IMPERIAL       SUNNY     65  20  17 NW8       30.36F
NORTH PLATTE   SUNNY     64  30  27 NW14      30.33F
MCCOOK         SUNNY     66  26  22 NW13      30.35F

...EASTERN NEBRASKA...

CITY           SKY/WX    TMP DP  RH WIND       PRES   REMARKS
NORFOLK        SUNNY     62  30  29 W14       30.28S
SO SIOUX CITY  SUNNY     62  33  33 W12G17    30.26F
TEKAMAH        SUNNY     62  29  28 W12G20    30.28F
COLUMBUS       SUNNY     63  32  31 W13       30.30F
ALBION         SUNNY     63  31  30 NW14G21   30.30S
OMAHA EPPLEY   MOSUNNY   61  33  35 W7        30.30F
OFFUTT AFB     SUNNY     60  33  36 W9        30.31S
MILLARD        SUNNY     62  35  36 W12       30.31S
LINCOLN        SUNNY     63  30  28 NW9       30.34S
NEBRASKA CITY  SUNNY     59  34  39 W8        30.33S
BEATRICE       SUNNY     61  34  36 NW9       30.34F
FALLS CITY     SUNNY     59  34  39 NW12      30.33F

...NORTHERN KANSAS...

CITY           SKY/WX    TMP DP  RH WIND       PRES   REMARKS
GOODLAND       SUNNY     65  27  23 W9        30.37F
HILL CITY      SUNNY     67  27  22 NW13      30.37F
NORTON         CLEAR     68  19  15 NW10      30.35S
PHILLIPSBURG   SUNNY     66  25  20 W12       30.35F
SMITH CENTER   SUNNY     64  30  27 NW7       30.36F
HAYS           SUNNY     65  32  29 NW8       30.38F
RUSSELL        SUNNY     64  32  30 NW9       30.37F
CONCORDIA      SUNNY     62  32  32 W8        30.36F HAZE
SALINA         SUNNY     64  34  32 NW7       30.38F
TOPEKA         SUNNY     62  36  37 NW12      30.35S



USA.gov is the U.S. government's official web portal to all federal, state and local government web resources and services.